Time,TemperatureF,DewpointF,PressureIn,WindDirection,WindDirectionDegrees,WindSpeedMPH,WindSpeedGustMPH,Humidity,HourlyPrecipIn,Conditions,Clouds,dailyrainin,SoftwareType,DateUTC
2013-02-11 00:00:00,33.0,-99.9,-100.00,West,279,15.0,31.0,-999,0.00,,,0.12,,2013-02-11 06:00:00,
2013-02-11 00:42:00,33.0,-99.9,-100.00,West,279,15.0,31.0,-999,0.00,,,0.12,,2013-02-11 06:42:00,
2013-02-11 00:52:00,33.0,-99.9,-100.00,West,279,15.0,31.0,-999,0.00,,,0.12,,2013-02-11 06:52:00,
2013-02-11 01:00:00,33.0,-99.9,-100.00,West,277,15.0,39.0,-999,0.00,,,0.09,,2013-02-11 07:00:00,
2013-02-11 01:42:00,33.0,-99.9,-100.00,West,277,15.0,39.0,-999,0.00,,,0.09,,2013-02-11 07:42:00,
2013-02-11 01:52:00,33.0,-99.9,-100.00,West,277,15.0,39.0,-999,0.00,,,0.09,,2013-02-11 07:52:00,
2013-02-11 02:00:00,33.0,-99.9,-100.00,West,272,15.0,27.0,-999,0.00,,,0.08,,2013-02-11 08:00:00,
2013-02-11 02:42:00,33.0,-99.9,-100.00,West,272,15.0,27.0,-999,0.00,,,0.08,,2013-02-11 08:42:00,
2013-02-11 02:52:00,33.0,-99.9,-100.00,West,272,15.0,27.0,-999,0.00,,,0.08,,2013-02-11 08:52:00,
2013-02-11 03:00:00,32.0,-99.9,-100.00,West,276,15.0,29.0,-999,0.00,,,0.08,,2013-02-11 09:00:00,
2013-02-11 03:42:00,32.0,-99.9,-100.00,West,276,15.0,29.0,-999,0.00,,,0.08,,2013-02-11 09:42:00,
2013-02-11 03:52:00,32.0,-99.9,-100.00,West,276,15.0,29.0,-999,0.00,,,0.08,,2013-02-11 09:52:00,
2013-02-11 04:00:00,32.0,-99.9,-100.00,WNW,283,12.0,25.0,-999,0.00,,,0.08,,2013-02-11 10:00:00,
2013-02-11 04:42:00,32.0,-99.9,-100.00,WNW,283,12.0,25.0,-999,0.00,,,0.08,,2013-02-11 10:42:00,
2013-02-11 04:52:00,32.0,-99.9,-100.00,WNW,283,12.0,25.0,-999,0.00,,,0.08,,2013-02-11 10:52:00,
2013-02-11 05:00:00,32.0,-99.9,-100.00,WNW,288,11.0,25.0,-999,0.00,,,0.08,,2013-02-11 11:00:00,
2013-02-11 05:42:00,32.0,-99.9,-100.00,WNW,288,11.0,25.0,-999,0.00,,,0.08,,2013-02-11 11:42:00,
2013-02-11 05:52:00,32.0,-99.9,-100.00,WNW,288,11.0,25.0,-999,0.00,,,0.08,,2013-02-11 11:52:00,
2013-02-11 06:00:00,31.0,-99.9,-100.00,WNW,290,14.0,24.0,-999,0.00,,,0.08,,2013-02-11 12:00:00,
2013-02-11 06:43:00,31.0,-99.9,-100.00,WNW,290,14.0,24.0,-999,0.00,,,0.08,,2013-02-11 12:43:00,
2013-02-11 06:53:00,31.0,-99.9,-100.00,WNW,290,14.0,24.0,-999,0.00,,,0.08,,2013-02-11 12:53:00,
2013-02-11 07:00:00,31.0,-99.9,-100.00,WNW,302,10.0,24.0,-999,0.00,,,0.06,,2013-02-11 13:00:00,
2013-02-11 07:52:00,31.0,-99.9,-100.00,WNW,302,10.0,24.0,-999,0.00,,,0.06,,2013-02-11 13:52:00,
2013-02-11 08:00:00,30.0,-99.9,-100.00,WNW,293,11.0,21.0,-999,0.00,,,0.01,,2013-02-11 14:00:00,
2013-02-11 08:43:00,30.0,-99.9,-100.00,WNW,293,11.0,21.0,-999,0.00,,,0.01,,2013-02-11 14:43:00,
2013-02-11 08:53:00,30.0,-99.9,-100.00,WNW,293,11.0,21.0,-999,0.00,,,0.01,,2013-02-11 14:53:00,
2013-02-11 09:00:00,31.0,-99.9,-100.00,WNW,300,9.0,18.0,-999,0.00,,,0.01,,2013-02-11 15:00:00,
2013-02-11 09:43:00,31.0,-99.9,-100.00,WNW,300,9.0,18.0,-999,0.00,,,0.01,,2013-02-11 15:43:00,
2013-02-11 09:52:00,31.0,-99.9,-100.00,WNW,300,9.0,18.0,-999,0.00,,,0.01,,2013-02-11 15:52:00,
2013-02-11 10:00:00,31.0,-99.9,-100.00,WNW,294,12.0,30.0,-999,0.00,,,0.01,,2013-02-11 16:00:00,
2013-02-11 10:43:00,31.0,-99.9,-100.00,WNW,294,12.0,30.0,-999,0.00,,,0.01,,2013-02-11 16:43:00,
2013-02-11 10:53:00,31.0,-99.9,-100.00,WNW,294,12.0,30.0,-999,0.00,,,0.01,,2013-02-11 16:53:00,
2013-02-11 11:00:00,32.0,-99.9,-100.00,NW,306,10.0,31.0,-999,0.00,,,0.01,,2013-02-11 17:00:00,
2013-02-11 11:42:00,32.0,-99.9,-100.00,NW,306,10.0,31.0,-999,0.00,,,0.01,,2013-02-11 17:42:00,
2013-02-11 11:53:00,32.0,-99.9,-100.00,NW,306,10.0,31.0,-999,0.00,,,0.01,,2013-02-11 17:53:00,
2013-02-11 12:00:00,33.0,-99.9,-100.00,WNW,296,11.0,25.0,-999,0.00,,,0.01,,2013-02-11 18:00:00,
2013-02-11 12:42:00,33.0,-99.9,-100.00,WNW,296,11.0,25.0,-999,0.00,,,0.01,,2013-02-11 18:42:00,
2013-02-11 12:54:00,33.0,-99.9,-100.00,WNW,296,11.0,25.0,-999,0.00,,,0.01,,2013-02-11 18:54:00,
2013-02-11 14:00:00,33.0,-99.9,-100.00,WNW,285,10.0,16.0,-999,0.00,,,0.01,,2013-02-11 20:00:00,
2013-02-11 14:42:00,33.0,-99.9,-100.00,WNW,285,10.0,16.0,-999,0.00,,,0.01,,2013-02-11 20:42:00,
2013-02-11 14:52:00,33.0,-99.9,-100.00,WNW,285,10.0,16.0,-999,0.00,,,0.01,,2013-02-11 20:52:00,
2013-02-11 15:00:00,33.0,-99.9,-100.00,WNW,294,11.0,23.0,-999,0.00,,,0.00,,2013-02-11 21:00:00,
2013-02-11 15:42:00,33.0,-99.9,-100.00,WNW,294,11.0,23.0,-999,0.00,,,0.00,,2013-02-11 21:42:00,
2013-02-11 15:52:00,33.0,-99.9,-100.00,WNW,294,11.0,23.0,-999,0.00,,,0.00,,2013-02-11 21:52:00,
2013-02-11 16:00:00,33.0,-99.9,-100.00,WNW,298,10.0,20.0,-999,0.00,,,0.00,,2013-02-11 22:00:00,
2013-02-11 16:42:00,33.0,-99.9,-100.00,WNW,298,10.0,20.0,-999,0.00,,,0.00,,2013-02-11 22:42:00,
2013-02-11 16:53:00,33.0,-99.9,-100.00,WNW,298,10.0,20.0,-999,0.00,,,0.00,,2013-02-11 22:53:00,
2013-02-11 17:00:00,32.0,-99.9,-100.00,WNW,295,8.0,18.0,-999,0.00,,,0.00,,2013-02-11 23:00:00,
2013-02-11 17:42:00,32.0,-99.9,-100.00,WNW,295,8.0,18.0,-999,0.00,,,0.00,,2013-02-11 23:42:00,
2013-02-11 17:53:00,32.0,-99.9,-100.00,WNW,295,8.0,18.0,-999,0.00,,,0.00,,2013-02-11 23:53:00,
2013-02-11 18:00:00,32.0,-99.9,-100.00,WNW,300,7.0,14.0,-999,0.00,,,0.00,,2013-02-12 00:00:00,
2013-02-11 18:43:00,32.0,-99.9,-100.00,WNW,300,7.0,14.0,-999,0.00,,,0.00,,2013-02-12 00:43:00,
2013-02-11 18:52:00,32.0,-99.9,-100.00,WNW,300,7.0,14.0,-999,0.00,,,0.00,,2013-02-12 00:52:00,
2013-02-11 19:00:00,31.0,-99.9,-100.00,WNW,297,7.0,13.0,-999,0.00,,,0.00,,2013-02-12 01:00:00,
2013-02-11 19:42:00,31.0,-99.9,-100.00,WNW,297,7.0,13.0,-999,0.00,,,0.00,,2013-02-12 01:42:00,
2013-02-11 19:52:00,31.0,-99.9,-100.00,WNW,297,7.0,13.0,-999,0.00,,,0.00,,2013-02-12 01:52:00,
2013-02-11 20:00:00,31.0,-99.9,-100.00,WNW,293,6.0,12.0,-999,0.00,,,0.00,,2013-02-12 02:00:00,
2013-02-11 20:42:00,31.0,-99.9,-100.00,WNW,293,6.0,12.0,-999,0.00,,,0.00,,2013-02-12 02:42:00,
2013-02-11 20:53:00,31.0,-99.9,-100.00,WNW,293,6.0,12.0,-999,0.00,,,0.00,,2013-02-12 02:53:00,
2013-02-11 21:00:00,30.0,-99.9,-100.00,WNW,301,7.0,16.0,-999,0.00,,,0.00,,2013-02-12 03:00:00,
2013-02-11 21:32:00,30.0,-99.9,-100.00,WNW,301,7.0,16.0,-999,0.00,,,0.00,,2013-02-12 03:32:00,
2013-02-11 21:42:00,30.0,-99.9,-100.00,WNW,301,7.0,16.0,-999,0.00,,,0.00,,2013-02-12 03:42:00,
2013-02-11 21:52:00,30.0,-99.9,-100.00,WNW,301,7.0,16.0,-999,0.00,,,0.00,,2013-02-12 03:52:00,
2013-02-11 22:00:00,30.0,-99.9,-100.00,NW,308,5.0,12.0,-999,0.00,,,0.00,,2013-02-12 04:00:00,
2013-02-11 22:42:00,30.0,-99.9,-100.00,NW,308,5.0,12.0,-999,0.00,,,0.00,,2013-02-12 04:42:00,
2013-02-11 22:52:00,30.0,-99.9,-100.00,NW,308,5.0,12.0,-999,0.00,,,0.00,,2013-02-12 04:52:00,